[[{"header":{"parameterUnit":"m.s-1","parameterCategory":2,"la1":30.2992,"la2":30.254,"lo1":-89.0895,"lo2":-89.0443,"dy":0.0025,"dx":0.0025,"nx":19,"ny":19,"refTime":"2026-03-25T03:00:00:Z","depth":"0","parameterNumber":2,"parameterNumberName":"U-component_of_CURRENTS"},"data":[0,0,0,0.3588,0.3589,0.3651,0.3651,0.3782,0.3783,0,0,0,0,0,0,0,0,0,0,0,0.3559,0.3559,0.3588,0.359,0.3651,0.3651,0.3782,0.3784,0,0,0,0,0,0,0,0,0,0,0,0.3559,0.3559,0.3559,0.359,0.3651,0.3651,0.3782,0.3722,0,0,0,0,0,0,0,0,0,0,0.3656,0.3619,0.3559,0.3559,0.359,0.3651,0.3651,0.3718,0.3726,0.377,0,0.3775,0,0.3789,0.3794,0.3794,0,0,0,0.3587,0.3612,0.3635,0.3559,0.3591,0.365,0.3623,0.3722,0.373,0.378,0.3777,0.3782,0.3792,0.3795,0.3795,0.4069,0.4071,0,0,0.3584,0.3569,0.3628,0.3639,0.3603,0.3621,0.3624,0.3726,0.3732,0.3778,0.3785,0.3794,0.3796,0.3797,0.4067,0.4069,0,0,0,0.3576,0.3566,0.3585,0.3634,0.3645,0.3622,0.3627,0.3727,0.3734,0.3787,0.3795,0.3797,0.3798,0.4065,0.4068,0.4352,0,0,0,0.3574,0.3562,0.3583,0.3574,0.3642,0.368,0.3625,0.3727,0.3739,0.3795,0.3797,0.38,0.4063,0.4067,0.4339,0.4341,0,0,0,0.3557,0.3561,0.3567,0.3573,0.3602,0.3678,0.369,0.3729,0.3745,0.3794,0.38,0.4062,0.4066,0.4329,0.4326,0.4477,0,0,0,0.354,0.3593,0.3566,0.3652,0.3602,0.376,0.369,0.3767,0.3814,0.3797,0.4063,0.4068,0.4325,0.4317,0.4467,0.445,0.4494,0,0,0.361,0.36,0.3662,0.3642,0.3831,0.3751,0.4,0.3989,0.3903,0.4028,0.4034,0.4344,0.4325,0.4475,0.4704,0.4741,0,0,0,0.369,0.3746,0.3796,0.3893,0.3969,0.4102,0.4126,0.4152,0.4239,0.3952,0.4354,0.4329,0.4417,0.4387,0.4418,0.409,0.4088,0.4088,0.4087,0.3784,0.386,0.401,0.4143,0.4241,0.4369,0.4473,0.4512,0.4459,0.4532,0.4576,0.488,0.4858,0.4878,0.4545,0.4654,0.4655,0.4656,0.4657,0.3972,0.4077,0.4184,0.4348,0.4483,0.4659,0.483,0.4832,0.5008,0.486,0.4938,0.4701,0.4927,0.4559,0.4675,0.4672,0.4669,0.4668,0.4666,0.4061,0.4122,0.4216,0.4438,0.462,0.4778,0.4966,0.5077,0.5147,0.5258,0.5183,0.5176,0.4832,0.5322,0.5323,0.5324,0.5324,0.5325,0.5325,0.4097,0.4204,0.4333,0.4521,0.4623,0.4783,0.5025,0.5166,0.5352,0.5397,0.5397,0.4891,0.5079,0.503,0.5338,0.5335,0.5334,0.5333,0.5332,0.4248,0.4227,0.4416,0.4519,0.4722,0.4786,0.5033,0.5297,0.5501,0.5584,0.5179,0.5497,0.5372,0.5344,0.5299,0.5657,0.5657,0.5657,0.5657,0.4291,0.4315,0.4499,0.462,0.475,0.4802,0.489,0.5059,0.5182,0.5124,0.513,0.496,0.4961,0.4798,0.4782,0.4718,0.4921,0.4919,0.4918,0.4405,0.4435,0.4546,0.4621,0.4741,0.4755,0.4631,0.4525,0.4726,0.4851,0.4688,0.4719,0.4424,0.4452,0.415,0.4155,0.4031,0,0]},{"header":{"parameterUnit":"m.s-1","parameterCategory":2,"la1":30.2992,"la2":30.254,"lo1":-89.0895,"lo2":-89.0443,"dy":0.0025,"dx":0.0025,"nx":19,"ny":19,"refTime":"2026-03-25T03:00:00:Z","depth":"0","parameterNumber":3,"parameterNumberName":"V-component_of_CURRENTS"},"data":[0,0,0,0.0225,0.0224,0.0193,0.0193,0.0137,0.0137,0,0,0,0,0,0,0,0,0,0,0,0.0237,0.0238,0.0225,0.0224,0.0193,0.0193,0.0137,0.0137,0,0,0,0,0,0,0,0,0,0,0,0.0237,0.0237,0.0238,0.0224,0.0193,0.0193,0.0137,0.0162,0,0,0,0,0,0,0,0,0,0,0.0193,0.021,0.0237,0.0238,0.0224,0.0193,0.0193,0.0163,0.016,0.0151,0,0.0157,0,0.015,0.0134,0.0134,0,0,0,0.0212,0.0212,0.0208,0.0238,0.0224,0.0193,0.0204,0.0161,0.0158,0.0147,0.0156,0.0154,0.0149,0.0134,0.0133,0.0176,0.0177,0,0,0.0214,0.0224,0.021,0.0206,0.023,0.0205,0.0203,0.016,0.016,0.0156,0.0153,0.0148,0.0133,0.0133,0.0175,0.0176,0,0,0,0.0227,0.0226,0.0222,0.0208,0.0207,0.0204,0.0202,0.0162,0.0162,0.0152,0.0147,0.0133,0.0132,0.0174,0.0176,0.0292,0,0,0,0.0227,0.0234,0.0223,0.0227,0.0208,0.0186,0.0205,0.0165,0.016,0.0148,0.0133,0.0132,0.0174,0.0175,0.0286,0.0354,0,0,0,0.0236,0.0235,0.0236,0.0228,0.0221,0.0186,0.0183,0.0163,0.0157,0.0134,0.0132,0.0173,0.0175,0.0282,0.0346,0.0494,0,0,0,0.024,0.0284,0.0237,0.0288,0.0221,0.0251,0.0183,0.0195,0.0185,0.0133,0.0174,0.0176,0.0281,0.034,0.0488,0.0668,0.0713,0,0,0.0306,0.0292,0.0326,0.0284,0.033,0.0254,0.03,0.0252,0.0208,0.0182,0.0183,0.0288,0.0345,0.0493,0.0777,0.082,0,0,0,0.0355,0.0369,0.0381,0.0388,0.0387,0.0378,0.0324,0.0313,0.0306,0.0211,0.0294,0.0327,0.0417,0.0511,0.0545,0.0396,0.0184,0.0184,0.0184,0.044,0.0436,0.0477,0.0468,0.0482,0.0461,0.048,0.0449,0.0382,0.0409,0.0425,0.0622,0.0722,0.075,0.0593,0.042,0.042,0.0421,0.0421,0.0512,0.0525,0.052,0.0553,0.0548,0.0569,0.0592,0.0576,0.0659,0.0544,0.0626,0.0632,0.0794,0.0613,0.0429,0.0427,0.0426,0.0426,0.0425,0.0535,0.054,0.055,0.0584,0.0624,0.0632,0.076,0.0761,0.0776,0.0859,0.0991,0.099,0.0832,0.0912,0.0913,0.0914,0.0915,0.0915,0.0916,0.0543,0.0555,0.0592,0.0623,0.0667,0.0752,0.0872,0.0989,0.1146,0.1159,0.1161,0.0899,0.0773,0.0755,0.0931,0.0928,0.0926,0.0925,0.0924,0.0568,0.0575,0.0637,0.0683,0.0811,0.1,0.1096,0.1416,0.153,0.1661,0.1343,0.1336,0.1332,0.1305,0.1301,0.1608,0.1608,0.1608,0.1608,0.059,0.0595,0.0698,0.08,0.0956,0.1122,0.1556,0.182,0.1803,0.173,0.1534,0.141,0.1389,0.1376,0.1347,0.1337,0.1646,0.1646,0.1645,0.0617,0.0646,0.0734,0.0836,0.1021,0.1316,0.1775,0.2212,0.2041,0.1618,0.1293,0.1292,0.1065,0.1044,0.0979,0.095,0.0917,0,0]}],[{"header":{"parameterUnit":"m.s-1","parameterCategory":2,"la1":30.2992,"la2":30.254,"lo1":-89.0895,"lo2":-89.0443,"dy":0.0025,"dx":0.0025,"nx":19,"ny":19,"refTime":"2026-03-25T03:00:00:Z","depth":"2","parameterNumber":2,"parameterNumberName":"U-component_of_CURRENTS"},"data":[0,0,0,0.2511,0.2513,0.2575,0.2575,0.2643,0.2643,0,0,0,0,0,0,0,0,0,0,0,0.2487,0.2488,0.2511,0.2513,0.2575,0.2575,0.2643,0.2643,0,0,0,0,0,0,0,0,0,0,0,0.2487,0.2488,0.2489,0.2514,0.2575,0.2575,0.2642,0.2594,0,0,0,0,0,0,0,0,0,0,0.2534,0.2508,0.2488,0.2489,0.2514,0.2575,0.2575,0.2592,0.2597,0.2617,0,0.2641,0,0.2654,0.2649,0.265,0,0,0,0.2495,0.2504,0.2537,0.2489,0.2515,0.2575,0.2542,0.2595,0.2601,0.2624,0.2642,0.2645,0.2655,0.265,0.265,0.2766,0.2767,0,0,0.2492,0.248,0.2533,0.2541,0.2551,0.254,0.2544,0.2598,0.2603,0.2642,0.2646,0.2656,0.2651,0.2651,0.2766,0.2766,0,0,0,0.2494,0.2477,0.2508,0.2538,0.2557,0.2543,0.2547,0.26,0.2616,0.2647,0.2657,0.2651,0.2652,0.2765,0.2766,0.2858,0,0,0,0.2491,0.248,0.2507,0.2498,0.2556,0.2579,0.2547,0.2612,0.2619,0.2657,0.2651,0.2653,0.2764,0.2766,0.2854,0.2929,0,0,0,0.2481,0.2478,0.2495,0.2497,0.2535,0.2578,0.2595,0.2613,0.2626,0.265,0.2653,0.2764,0.2765,0.285,0.2921,0.2993,0,0,0,0.2452,0.2473,0.2495,0.252,0.2534,0.2596,0.2595,0.2643,0.2669,0.2651,0.2764,0.2766,0.2849,0.2917,0.2989,0.2923,0.2939,0,0,0.2459,0.2474,0.2488,0.251,0.2535,0.2585,0.265,0.2687,0.2695,0.2741,0.2744,0.2855,0.2921,0.2992,0.3006,0.3021,0,0,0,0.2476,0.2483,0.2499,0.2518,0.2572,0.2663,0.2693,0.2746,0.2821,0.2721,0.2859,0.2898,0.294,0.289,0.2902,0.2773,0.2773,0.2772,0.2772,0.2466,0.2477,0.2496,0.2533,0.2593,0.271,0.2801,0.2879,0.2865,0.293,0.2974,0.3098,0.3044,0.3053,0.2956,0.2957,0.2957,0.2957,0.2957,0.2435,0.2444,0.249,0.2518,0.2639,0.2731,0.2921,0.2973,0.3125,0.3083,0.3117,0.2991,0.3071,0.2965,0.2963,0.2962,0.2962,0.2961,0.2961,0.2386,0.2402,0.2419,0.2479,0.2639,0.2803,0.2995,0.3142,0.3218,0.3292,0.3231,0.3227,0.3172,0.331,0.331,0.3311,0.3312,0.3312,0.3313,0.2338,0.2354,0.2393,0.2477,0.2586,0.2779,0.3095,0.3226,0.3365,0.3358,0.3356,0.3218,0.3206,0.3193,0.3323,0.3321,0.332,0.3319,0.3318,0.2334,0.237,0.2365,0.2438,0.2644,0.2711,0.3016,0.3268,0.3434,0.3463,0.3378,0.3373,0.3345,0.3332,0.3321,0.3477,0.3477,0.3477,0.3477,0.243,0.2399,0.2449,0.2492,0.2603,0.271,0.2795,0.2928,0.3156,0.3161,0.3174,0.3036,0.3039,0.2984,0.2979,0.2957,0.3018,0.3017,0.3016,0.2559,0.2479,0.254,0.2483,0.2588,0.2626,0.2564,0.2463,0.2654,0.2987,0.2987,0.3467,0.3295,0.3287,0.3222,0.3207,0.3179,0,0]},{"header":{"parameterUnit":"m.s-1","parameterCategory":2,"la1":30.2992,"la2":30.254,"lo1":-89.0895,"lo2":-89.0443,"dy":0.0025,"dx":0.0025,"nx":19,"ny":19,"refTime":"2026-03-25T03:00:00:Z","depth":"2","parameterNumber":3,"parameterNumberName":"V-component_of_CURRENTS"},"data":[0,0,0,0.0227,0.0227,0.0177,0.0176,0.0063,0.0062,0,0,0,0,0,0,0,0,0,0,0,0.0242,0.0242,0.0228,0.0227,0.0177,0.0176,0.0063,0.0062,0,0,0,0,0,0,0,0,0,0,0,0.0242,0.0242,0.0242,0.0227,0.0177,0.0176,0.0063,0.0109,0,0,0,0,0,0,0,0,0,0,0.0162,0.0187,0.0242,0.0242,0.0227,0.0177,0.0176,0.0112,0.0106,0.0077,0,0.008,0,0.0076,0.0055,0.0054,0,0,0,0.021,0.0192,0.0184,0.0242,0.0226,0.0177,0.0194,0.0109,0.0103,0.0069,0.0078,0.0074,0.0074,0.0054,0.0053,0.0026,0.0026,0,0,0.0212,0.0222,0.0189,0.0181,0.0226,0.0196,0.0193,0.0105,0.01,0.0078,0.0072,0.0072,0.0053,0.0052,0.0025,0.0026,0,0,0,0.0232,0.0224,0.0218,0.0185,0.0184,0.0195,0.0192,0.0103,0.0104,0.0071,0.0071,0.0053,0.0051,0.0025,0.0026,0.0151,0,0,0,0.0233,0.0237,0.022,0.0224,0.0186,0.015,0.0192,0.0109,0.01,0.0071,0.0052,0.005,0.0024,0.0025,0.0147,0.0271,0,0,0,0.0242,0.0238,0.0237,0.0225,0.0212,0.0152,0.0146,0.0107,0.01,0.0054,0.005,0.0024,0.0025,0.0143,0.0261,0.0377,0,0,0,0.0245,0.0263,0.0238,0.0258,0.0213,0.0214,0.0146,0.0127,0.0096,0.0052,0.0024,0.0025,0.0141,0.0255,0.037,0.0411,0.0446,0,0,0.0274,0.0266,0.0281,0.0258,0.0289,0.0218,0.025,0.0176,0.0102,0.0045,0.0044,0.0148,0.0261,0.0375,0.0479,0.0512,0,0,0,0.0294,0.0311,0.0313,0.0324,0.0307,0.0339,0.0248,0.0218,0.0173,0.0092,0.0137,0.0205,0.0273,0.0282,0.0308,0.0031,0.0031,0.0031,0.0031,0.0347,0.0351,0.0397,0.0409,0.0419,0.0403,0.0421,0.0365,0.0242,0.0245,0.0296,0.0463,0.047,0.0491,0.0244,0.0245,0.0245,0.0246,0.0246,0.043,0.0471,0.0493,0.0545,0.0573,0.0605,0.0599,0.0544,0.0548,0.0408,0.0465,0.0401,0.0528,0.0256,0.0254,0.0253,0.0252,0.0251,0.025,0.0484,0.0511,0.0543,0.0645,0.0758,0.0786,0.0946,0.0871,0.0733,0.077,0.0757,0.0754,0.0591,0.0773,0.0775,0.0776,0.0777,0.0777,0.0778,0.053,0.0565,0.0684,0.0783,0.0898,0.1061,0.1157,0.1188,0.1109,0.0959,0.0957,0.0643,0.0625,0.0622,0.0794,0.0791,0.0789,0.0788,0.0787,0.0623,0.0647,0.0821,0.0946,0.1205,0.1411,0.1487,0.1539,0.1506,0.1464,0.1058,0.1046,0.1029,0.1005,0.101,0.1274,0.1274,0.1274,0.1274,0.0696,0.072,0.0981,0.1214,0.1443,0.1599,0.18,0.1728,0.1525,0.1328,0.1325,0.1175,0.1155,0.1134,0.1107,0.1109,0.1399,0.1399,0.1399,0.08,0.0869,0.108,0.1292,0.1567,0.1771,0.1912,0.1782,0.1444,0.1399,0.1296,0.1292,0.1053,0.1029,0.0973,0.094,0.0932,0,0]}],[{"header":{"parameterUnit":"m.s-1","parameterCategory":2,"la1":30.2992,"la2":30.254,"lo1":-89.0895,"lo2":-89.0443,"dy":0.0025,"dx":0.0025,"nx":19,"ny":19,"refTime":"2026-03-25T03:00:00:Z","depth":"4","parameterNumber":2,"parameterNumberName":"U-component_of_CURRENTS"},"data":[0,0,0,0.1517,0.152,0.1659,0.1659,0.1767,0.1768,0,0,0,0,0,0,0,0,0,0,0,0.147,0.1471,0.1517,0.1521,0.1659,0.1659,0.1767,0.1768,0,0,0,0,0,0,0,0,0,0,0,0.1469,0.1471,0.1472,0.1521,0.1658,0.1659,0.1767,0.1678,0,0,0,0,0,0,0,0,0,0,0.1552,0.1538,0.147,0.1472,0.1522,0.1658,0.1659,0.1675,0.1684,0.1687,0,0.1719,0,0.1748,0.1774,0.1775,0,0,0,0.1515,0.153,0.1552,0.1472,0.1523,0.1658,0.1595,0.168,0.169,0.1699,0.1721,0.1726,0.175,0.1775,0.1775,0.1882,0.1882,0,0,0.1507,0.1507,0.1545,0.1559,0.1573,0.159,0.1599,0.1687,0.1711,0.1722,0.1729,0.1752,0.1776,0.1776,0.1881,0.1882,0,0,0,0.1489,0.1502,0.1523,0.1553,0.1586,0.1594,0.1605,0.1707,0.1711,0.173,0.1753,0.1776,0.1777,0.1881,0.1882,0.1899,0,0,0,0.1484,0.1492,0.152,0.1523,0.1585,0.1663,0.1623,0.1705,0.1716,0.1752,0.1776,0.1778,0.188,0.1881,0.1897,0.1902,0,0,0,0.1461,0.149,0.1506,0.1522,0.1583,0.1662,0.1672,0.1708,0.173,0.1775,0.1778,0.188,0.1881,0.1896,0.19,0.201,0,0,0,0.1454,0.1475,0.1507,0.1535,0.1582,0.1632,0.1671,0.1742,0.1783,0.1777,0.188,0.1882,0.1895,0.1899,0.2007,0.1761,0,0,0,0.1462,0.1477,0.1485,0.1515,0.154,0.1612,0.1659,0.1746,0.1798,0.1844,0.1848,0.1898,0.19,0.2009,0.1829,0,0,0,0,0.1473,0.1468,0.1484,0.1513,0.1568,0.1631,0.171,0.1766,0.187,0.1831,0.1916,0.1917,0.1986,0.1834,0.1887,0.1887,0.1887,0.1887,0.1886,0.1441,0.1454,0.1459,0.1483,0.1537,0.1652,0.1726,0.182,0.1858,0.1929,0.1944,0.2054,0.1891,0.1961,0.1961,0.1961,0.1962,0.1962,0.1962,0.1376,0.1344,0.1411,0.1424,0.1518,0.1589,0.1743,0.1824,0.1988,0.1979,0.2047,0.1875,0.1964,0.1963,0.1963,0.1963,0.1963,0.1963,0.1962,0.1281,0.1268,0.1312,0.1363,0.1464,0.1588,0.1722,0.1866,0.2009,0.2086,0.2006,0.21,0.2088,0.2163,0.2164,0.2164,0.2165,0.2165,0.2165,0.1155,0.1192,0.1213,0.1302,0.1379,0.1524,0.1751,0.1856,0.2022,0.2012,0.2133,0.2124,0.2117,0.2103,0.2173,0.2172,0.2171,0.217,0.217,0.0985,0.1047,0.107,0.1138,0.1306,0.1413,0.1645,0.1807,0.194,0.1988,0.1991,0.1998,0.1987,0.1985,0.1964,0.1997,0.1994,0.1992,0,0.0873,0.09,0.0936,0.1015,0.1134,0.1319,0.1439,0.1603,0.1776,0.173,0.1943,0.194,0.1945,0.1922,0.1917,0.1885,0,0,0,0.0763,0.08,0.0796,0.0902,0.1031,0.1241,0.1463,0.1479,0.1762,0.1777,0.192,0.1939,0.2006,0.2197,0.2199,0.219,0.2168,0,0]},{"header":{"parameterUnit":"m.s-1","parameterCategory":2,"la1":30.2992,"la2":30.254,"lo1":-89.0895,"lo2":-89.0443,"dy":0.0025,"dx":0.0025,"nx":19,"ny":19,"refTime":"2026-03-25T03:00:00:Z","depth":"4","parameterNumber":3,"parameterNumberName":"V-component_of_CURRENTS"},"data":[0,0,0,0.0179,0.0178,0.0143,0.0142,0.0054,0.0053,0,0,0,0,0,0,0,0,0,0,0,0.019,0.019,0.0179,0.0178,0.0143,0.0142,0.0054,0.0053,0,0,0,0,0,0,0,0,0,0,0,0.019,0.019,0.019,0.0178,0.0143,0.0142,0.0055,0.0089,0,0,0,0,0,0,0,0,0,0,0.0127,0.0149,0.019,0.019,0.0178,0.0143,0.0142,0.0091,0.0087,0.0062,0,0.0066,0,0.0063,0.0048,0.0048,0,0,0,0.0165,0.0153,0.0146,0.019,0.0178,0.0143,0.0155,0.0089,0.0084,0.0057,0.0065,0.0062,0.0061,0.0047,0.0047,0.0031,0.0032,0,0,0.0167,0.0177,0.0149,0.0143,0.018,0.0156,0.0154,0.0086,0.0083,0.0065,0.006,0.006,0.0047,0.0046,0.0031,0.0031,0,0,0,0.0182,0.0178,0.0173,0.0146,0.0146,0.0156,0.0153,0.0086,0.0086,0.0059,0.0059,0.0046,0.0045,0.003,0.0031,0.0144,0,0,0,0.0182,0.0187,0.0174,0.0178,0.0148,0.0122,0.0155,0.0091,0.0083,0.0059,0.0046,0.0044,0.003,0.0031,0.014,0.0205,0,0,0,0.019,0.0188,0.0188,0.0179,0.017,0.0123,0.0118,0.0089,0.0083,0.0047,0.0044,0.0029,0.0031,0.0136,0.0197,0.0223,0,0,0,0.0194,0.0204,0.0189,0.0205,0.0171,0.0178,0.0119,0.0102,0.0077,0.0046,0.003,0.0031,0.0135,0.0193,0.0219,0.0229,0,0,0,0.021,0.0207,0.0218,0.0204,0.0241,0.0181,0.0213,0.0147,0.0085,0.0045,0.0045,0.0141,0.0197,0.0222,0.0293,0,0,0,0,0.0227,0.0246,0.0251,0.027,0.0259,0.028,0.0215,0.0186,0.0152,0.0078,0.0132,0.0163,0.0175,0.0169,0.0036,0.0036,0.0036,0.0036,0.0036,0.0269,0.0281,0.0329,0.0352,0.0358,0.0339,0.0337,0.0288,0.0215,0.0217,0.0248,0.0338,0.0336,0.0229,0.023,0.0231,0.0231,0.0231,0.0232,0.0343,0.0386,0.0414,0.0469,0.0486,0.0511,0.0472,0.0428,0.0409,0.034,0.0345,0.0281,0.0242,0.024,0.0239,0.0237,0.0237,0.0236,0.0235,0.0391,0.0418,0.0462,0.0559,0.0633,0.0637,0.0687,0.0626,0.0527,0.0539,0.0489,0.0407,0.0404,0.0528,0.0529,0.0529,0.053,0.053,0.053,0.0424,0.047,0.0563,0.0661,0.0739,0.082,0.0815,0.0786,0.0686,0.0629,0.0569,0.0437,0.0427,0.042,0.0537,0.0536,0.0535,0.0534,0.0534,0.0476,0.0505,0.0636,0.0728,0.0918,0.0971,0.0971,0.0884,0.0851,0.0776,0.0653,0.0645,0.06,0.0586,0.0582,0.0752,0.0752,0.0753,0,0.0505,0.0532,0.0713,0.0872,0.1026,0.1066,0.1053,0.0994,0.085,0.0849,0.0827,0.0693,0.0685,0.0635,0.0623,0.0621,0,0,0,0.0542,0.059,0.0724,0.0898,0.1081,0.1076,0.1052,0.1008,0.089,0.0828,0.0768,0.0764,0.0641,0.0556,0.0467,0.0456,0.0438,0,0]}]]